SCOUT A DEB, 2353

Orbit data source: Space-Track

SCOUT A DEB, 2353 is space debris in LEO originally from a launch on Sat, 26 Mar 1966 UTC launched from the Air Force Western Test Range (AFWTR). Debris objects in space refer to the collection of defunct objects orbiting the Earth. Examples of debris include non-operational satellites, rocket bodies, and fragments generated from explosions, collisions, or faulty payload assembly.

Loading next visibility...
Identifier
2353, 1966-024C
Orbit
LEO
Last TLE update
3 days ago
Origin
Manufacturer
Unknown
Mission
Spacecraft
Bus & Motor
Unknown
Mass
Unknown
Launch date (UTC)
1966-03-26 (59 years ago)
Launch vehicle
Unknown
Launch site
Air Force Western Test Range (AFWTR)
Object type
Payload
Rocket body
Debris
Shape & HBR
Unknown
Radar Cross Section
Small (<0.1 m²)

Expand to show TLE details & history

TLE from 3 days ago
0 SCOUT A DEB
1 02353U 66024C   25197.54173201  .00000171  00000-0  14781-3 0  9991
2 02353  89.3846  35.3331 0151978   7.7586 352.5879 13.77334068968830
Epoch: 2025-07-16T13:00Z
TLE epoch observation values (Epoch: 2025-07-16T13:00:05.645Z)
Latitude
-0.00002°
Longitude
-94.31083°
Altitude
865.564 km
Speed
7.475 km/s
True Right ascension
02h 21m 19s
True Declination
0° 00' 00"
Sunlit
Object was in daylight at epoch
Visualization orbit readout
Latitude
78.92683°
Longitude
82.36899°
Altitude
1,008.699 km
Speed
7.343 km/s
Apparent Right ascension
12h 30m 30s
Apparent Declination
27° 08' 10"
Sunlit
Object is in daylight
Visualization observer readout
Local Sidereal Time
00:02:58
Azimuth
353.361° N
Elevation
-22.642°
Doppler factor
1
Orbital elements
Apogee altitude
1,082.049 km
Perigee altitude
858.687 km
Semi-major axis
7,348.505 km
Eccentricity
0.0152
Inclination
89.3846°
RAAN
35.3331°
Arg. of periapsis
7.7586°
True anomaly
352.35892°
Mean anomaly
352.5879°
Eccentric anomaly
352.47385°
Mean motion
3.44544 °/min
Orbital period
104.49 mins
BSTAR
0.00014781
Loading maneuver chart data...
Loading SW <> Apogee altitude chart data...
Loading historical data...
Loading historical data...
Loading historical data...
Loading historical data...
Loading historical data...
Loading historical data...
Loading historical data...
|